Location: St Andrew
(49.4460°N, 2.5750°W)
Time: 03:34:02
(UTC+01:00)

Daily predictions for brighter satellites

Satellite Brightness Start Highest point End
(mag) Time Altitude Azimuth Time Altitude Azimuth Time Altitude Azimuth
Cosmos 2227 Rocket 3.5 00:01:46 10° NNW 00:05:25 37° N 00:05:25 37° N
Lacrosse 5 3.9 00:13:02 10° WNW 00:15:20 24° NW 00:15:20 24° NW
Cosmos 1943 Rocket 3.6 00:25:31 34° NNW 00:25:31 34° NNW 00:29:26 10° NNE
ATLAS 5 CENTAUR R/B 4.4 00:24:12 10° WNW 00:28:07 21° NNW 00:32:18 10° NE
Terra 4.5 00:30:10 13° WNW 00:30:10 13° WNW 00:31:15 10° NW
CZ-2C R/B 4.4 01:05:12 10° NNE 01:07:26 26° N 01:07:26 26° N
ATLAS 3B R/B 3.3 01:19:01 55° N 01:19:01 55° N 01:25:10 10° NE
USA 215 4.1 01:14:43 10° ENE 01:20:53 47° N 01:27:04 10° WNW
Cosmos 2297 Rocket 4.1 01:19:52 10° NW 01:21:54 23° NW 01:21:54 23° NW
CZ-4C R/B 4.2 01:32:33 22° NW 01:34:44 27° NNW 01:40:19 10° NE
Cosmos 1697 Rocket 4.4 01:53:06 29° NE 01:53:06 29° NE 01:55:48 10° NE
NOSS 3-2 (A) 4.4 01:53:39 45° NE 01:53:39 45° NE 01:58:15 10° NE
Cosmos 1980 Rocket 3.7 02:12:23 31° NE 02:12:23 31° NE 02:15:27 10° NE
USA 238 DEB 4.4 02:12:09 47° NNW 02:12:09 47° NNW 02:18:54 10° NE
USA 238 4.4 02:12:16 47° NNW 02:12:16 47° NNW 02:19:01 10° NE
ATLAS 5 CENTAUR R/B 4.4 02:10:30 10° NW 02:14:44 22° NNE 02:19:16 10° ENE
Cosmos 2263 Rocket 3.5 02:13:32 10° NNW 02:17:40 36° NNE 02:17:40 36° NNE
SL-16 R/B 3.4 02:35:16 41° E 02:35:59 43° ENE 02:41:48 10° N
NOSS 3-2 (C) 4.0 02:42:24 57° N 02:42:24 57° N 02:48:28 10° NE
CENTAUR R/B 3.0 02:48:27 56° ENE 02:48:27 56° ENE 02:54:15 10° NE
COSMOS 2455 4.1 02:57:06 32° NW 02:57:06 32° NW 03:02:26 10° NNE
USA 215 3.8 02:56:59 10° E 03:03:20 55° NNE 03:09:40 10° WNW
Lacrosse 4 Rocket 4.3 03:00:11 10° NNW 03:00:28 12° NNW 03:00:28 12° NNW
ATLAS 3B R/B 4.3 03:06:13 18° WNW 03:10:17 28° NNW 03:16:13 10° NE
Resurs 1-4 Rocket 3.1 03:10:43 10° NNE 03:15:26 40° E 03:15:26 40° E
Cosmos 2322 Rocket 2.5 03:24:14 63° ENE 03:24:14 63° ENE 03:29:06 10° NNE
CZ-2D R/B 2.8 03:18:53 10° NNE 03:24:13 48° E 03:24:15 48° E
SL-16 R/B 2.3 03:30:45 71° ENE 03:30:45 71° ENE 03:35:55 10° NNE
Orbus 7S? 4.5 03:33:05 82° S 03:33:19 85° SE 03:37:44 10° ENE
Cosmos 1697 Rocket 3.9 03:34:49 30° NW 03:34:49 30° NW 03:39:34 10° NNE
Cosmos 1844 Rocket 4.0 03:30:07 10° NNW 03:35:20 37° NE 03:40:29 10° ESE
Cosmos 1992 Rocket 4.5 03:36:22 55° N 03:36:22 55° N 03:40:37 10° NNE
DNEPR-1 R/B 4.2 03:39:50 71° NE 03:39:50 71° NE 03:44:12 10° NE
NPP 4.1 03:35:17 10° N 03:39:46 53° NNW 03:39:46 53° NNW
Cosmos 1975 Rocket 4.1 03:42:08 44° NE 03:42:08 44° NE 03:45:32 10° NNE
Meteor 1-27 Rocket 4.0 03:43:47 61° NW 03:43:47 61° NW 03:49:09 10° N
USA 81 4.4 03:45:15 58° NNW 03:45:15 58° NNW 03:49:38 10° N
Cosmos 2360 Rocket 2.7 03:52:16 47° SE 03:53:04 51° ESE 03:58:32 10° NE
ADEOS 3.5 03:48:47 10° NNE 03:54:00 86° E 03:54:00 86° E
Cosmos 1980 Rocket 3.2 03:54:08 34° NW 03:54:12 34° NW 03:59:22 10° NNE
Cosmos 2278 Rocket 4.2 03:50:17 10° NNW 03:55:08 28° NE 03:59:56 10° ESE
Spot 4 Rocket 4.0 03:53:33 10° NNE 03:58:30 75° NW 03:58:30 75° NW
ATLAS 5 CENTAUR R/B 3.3 03:55:13 10° NW 04:00:45 47° NE 04:06:49 10° ESE
Cosmos 2263 Rocket 3.9 03:57:33 10° NW 03:59:20 20° NW 03:59:20 20° NW
ARIANE 5 R/B 2.4 03:57:55 10° NNE 04:03:05 85° WNW 04:03:09 84° W
Cosmos 2315 Rocket 3.8 04:02:31 66° WSW 04:03:12 72° WNW 04:09:26 10° N
Cosmos 2344 4.5 03:54:51 10° NW 04:05:12 84° SW 04:19:28 10° SE
Genesis I 4.3 04:06:44 41° N 04:06:44 41° N 04:09:34 10° NE
Cosmos 1709 Rocket 4.3 04:03:04 10° NNW 04:08:38 47° W 04:08:38 47° W
MOZ.5/SAFIR/RUBIN 5/SL-8 3.7 04:09:18 86° E 04:09:19 86° ENE 04:14:00 10° NNW
Cosmos 1975 3.2 04:08:56 10° N 04:12:54 63° ENE 04:12:54 63° ENE
SL-16 R/B 3.1 04:20:20 39° W 04:20:20 39° W 04:25:29 10° NNW
Cosmos 1346 Rocket 4.5 04:22:05 23° NNW 04:22:05 23° NNW 04:24:01 10° N
ADEOS Rocket 2.6 04:17:26 10° NNE 04:23:01 77° WNW 04:24:13 56° SW
Cosmos 2074 Rocket 3.9 04:17:30 10° NNW 04:23:47 79° W 04:26:55 31° S
Cosmos 1340 3.1 04:25:44 54° ESE 04:25:57 55° E 04:29:41 10° NNE
Cosmos 1812 3.0 04:29:30 60° NNW 04:29:30 60° NNW 04:32:48 10° N
Cosmos 2333 Rocket 4.2 04:26:13 10° SSE 04:30:39 24° ESE 04:35:07 10° NE
IRS-1D 3.7 04:26:59 10° N 04:31:44 47° WNW 04:31:58 46° WNW
Cosmos 1544 Rocket 3.6 04:29:58 10° NNW 04:34:05 59° WNW 04:34:05 59° WNW
Cosmos 1666 4.5 04:31:49 10° N 04:35:22 33° ENE 04:38:54 10° SE
Cosmos 2322 3.6 04:33:31 45° SSW 04:35:24 89° ESE 04:41:11 10° NNE
CENTAUR R/B 3.4 04:35:37 29° WNW 04:38:26 42° NNW 04:45:21 10° NE
USA 215 3.1 04:39:39 10° SE 04:46:12 78° SW 04:52:47 10° WNW
Cosmos 1743 2.9 04:43:32 10° N 04:47:25 70° ENE 04:50:27 16° SSE
Cosmos 1844 3.7 04:43:54 10° NNW 04:49:44 90° SSW 04:55:27 10° SSE
Resurs 1-4 Rocket 2.9 04:50:46 10° N 04:55:28 34° WNW 04:56:32 31° W
Meteor 1-18 Rocket 4.2 04:54:58 34° SW 04:57:19 61° WNW 05:02:55 10° N
CZ-4B R/B 4.0 04:53:20 10° NNE 04:58:53 53° E 05:04:17 10° S
UNKNOWN OBJECT B 3.5 04:58:12 10° N 05:01:27 33° WNW 05:01:27 33° WNW
COBE Rocket 4.4 04:57:04 10° N 05:01:56 45° WNW 05:03:38 33° WSW
Cosmos 2184 Rocket 4.3 04:56:29 10° NNW 05:02:19 44° W 05:05:41 24° SSW
ATLAS 3B R/B 4.5 04:57:20 10° NW 05:03:14 27° NNE 05:08:53 10° ENE
CZ-2D R/B 3.1 04:59:19 10° N 05:04:05 31° WNW 05:05:35 27° W
Okean O Rocket 1.9 05:00:06 10° NNE 05:04:34 69° ESE 05:08:20 14° S
BREEZE M DEB (TANK) 3.9 04:49:59 10° WNW 05:06:30 72° SSW 05:10:59 10° ESE
Cosmos 2298 Rocket 4.1 05:01:18 10° NNW 05:06:41 80° ENE 05:12:01 10° SSE
Cosmos 1455 Rocket 3.7 05:03:43 10° NNW 05:07:43 34° W 05:07:52 34° W
Cosmos 2322 Rocket 3.5 05:06:02 21° WNW 05:08:06 26° NW 05:12:47 10° NNE
Cosmos 1500 4.3 05:05:30 10° NNW 05:08:02 27° WNW 05:08:02 27° WNW
Meteor 1-13 Rocket 4.3 05:06:11 10° S 05:11:44 81° E 05:17:25 10° NNE
EO 1 Del DPAF 3.1 05:09:45 10° S 05:13:37 76° WSW 05:17:30 10° NNW
SL-16 R/B 3.6 05:12:37 19° WNW 05:14:59 25° NW 05:19:38 10° NNE
CZ-4C R/B 3.8 05:09:05 10° NW 05:15:34 46° NE 05:22:50 10° ESE
ADEOS II 2.3 05:11:02 10° NNE 05:16:19 75° ESE 05:21:34 10° S
Cosmos 962 Rocket 4.4 05:11:01 10° NNW 05:17:18 79° W 05:23:37 10° S
Cosmos 2219 Rocket 2.6 05:12:33 12° SSW 05:17:46 63° ESE 05:23:18 10° NNE
SL-8 R/B 3.9 05:16:24 28° W 05:18:36 51° SSW 05:23:14 10° SE
Cosmos 1844 Rocket 2.9 05:14:03 10° NW 05:19:20 44° WSW 05:24:33 10° S
CZ-2D R/B 4.5 05:17:05 10° N 05:21:01 31° WNW 05:22:22 26° W
ERS-2 4.0 05:17:42 10° NE 05:21:02 30° E 05:24:20 10° SSE
Okean-O 4.5 05:17:26 10° NNE 05:21:26 32° E 05:25:24 10° SSE
Meteor 2-9 Rocket 4.2 05:16:41 10° NNW 05:22:26 87° E 05:27:57 10° SSE
CZ-4B R/B 2.5 05:18:49 10° NNE 05:22:27 80° WNW 05:25:05 18° SSW
Cosmos 2237 4.3 05:19:12 23° SW 05:22:47 63° WNW 05:28:30 10° NNE
Cosmos 2208 Rocket 4.1 05:23:09 20° SW 05:26:59 65° WNW 05:32:25 10° NNE
COSMOS 2428 2.7 05:23:03 20° SW 05:27:07 71° WNW 05:32:50 10° NNE
CZ-2C R/B 3.6 05:24:29 10° S 05:29:00 64° WSW 05:33:29 10° NNW
MOS 1 Rocket 3.7 05:28:41 10° N 05:33:09 42° WNW 05:35:59 19° SW
ERBS 2.8 05:32:28 10° NW 05:35:57 62° NNE 05:39:25 10° ESE
Cosmos 2154 Rocket 4.3 05:30:46 10° NNW 05:36:36 44° W 05:42:26 10° SSW
Aureole 2 Rocket 3.4 05:33:51 10° S 05:37:12 45° ESE 05:40:19 10° NE
Cosmos 2360 Rocket 3.1 05:34:02 19° W 05:37:18 34° NW 05:42:27 10° NNE
Cosmos 1867 3.7 05:32:51 10° NW 05:38:07 49° WSW 05:43:21 10° SSE
MTI 4.3 05:35:45 10° SSW 05:38:51 37° W 05:41:58 10° NNW
Cosmos 1536 Rocket 4.4 05:36:48 20° WSW 05:39:11 33° WNW 05:43:16 10° N
Cosmos 2278 Rocket 2.1 05:34:04 10° NNW 05:39:44 68° WSW 05:45:20 10° SSE
Cosmos 1980 Rocket 4.4 05:38:21 10° NW 05:40:07 11° NNW 05:41:53 10° N
Cosmos 1238 Rocket 2.6 05:39:58 23° SW 05:41:21 39° WNW 05:44:19 10° N
Cosmos 990 Rocket 3.9 05:36:13 10° NNW 05:41:26 79° WSW 05:46:35 10° SSE
ARIANE 5 R/B 4.3 05:38:29 10° NNW 05:41:29 16° NW 05:43:29 13° W
PSLV R/B 3.5 05:39:14 10° N 05:43:33 68° WNW 05:47:54 10° SSW
ATLAS 5 CENTAUR R/B 2.6 05:39:56 10° NW 05:45:39 51° WSW 05:51:51 10° SSE
Cosmos 2237 Rocket 2.6 05:42:45 10° SSW 05:48:23 66° ESE 05:54:03 10° NNE
Cosmos 2058 Rocket 3.6 05:46:41 10° N 05:51:11 66° ENE 05:55:36 10° SSE
SL-8 Rocket 3.9 05:46:45 10° NNW 05:52:56 70° W 05:59:04 10° S
Cosmos 2150 Rocket 4.2 05:48:18 10° NNW 05:53:24 50° WSW 05:58:33 10° S
Cosmos 468 Rocket 4.0 05:48:39 10° SSW 05:53:51 82° WNW 05:59:09 10° NNE
Timation 1 Rocket 4.3 05:47:50 10° NNW 05:53:52 77° WSW 05:59:51 10° SSE
Cosmos 1898 Rocket 3.9 05:49:12 10° NW 05:54:00 39° WSW 05:58:46 10° S
Cosmos 2297 3.9 05:51:15 10° NNW 05:57:03 83° ENE 06:02:47 10° SSE
Thor Agena Rocket 3.5 05:52:39 10° SSE 05:57:42 90° NNE 06:02:47 10° NNW
Meteor 1-19 Rocket 4.5 05:52:50 10° SSW 05:58:21 51° WNW 06:04:00 10° N
Meteor 2-4 Rocket 3.7 05:56:05 10° SSW 06:01:34 63° WNW 06:06:57 10° N
Cosmos 1125 Rocket 4.2 05:57:19 10° NNW 06:02:35 61° ENE 06:07:49 10° SE
Cosmos 2181 Rocket 4.1 05:57:55 10° SSW 06:04:03 59° WNW 06:10:20 10° N
Cosmos 1606 Rocket 3.6 06:00:42 10° NNW 06:05:07 59° W 06:09:30 10° S
Cosmos 864 Rocket 4.5 05:59:12 10° NNW 06:05:25 79° W 06:11:38 10° S
Meteor 1-15 Rocket 4.4 06:00:49 10° NNW 06:06:37 60° W 06:12:26 10° S
Okean 1-7 Rocket 3.9 06:02:53 10° SSW 06:07:14 46° WNW 06:11:33 10° N
Cosmos 1666 3.9 06:07:49 10° NW 06:10:53 22° W 06:13:55 10° SW
Cosmos 1441 Rocket 3.8 06:08:54 10° S 06:12:50 66° E 06:16:50 10° NNE
Cosmos 1515 4.0 06:10:27 10° S 06:14:17 73° E 06:18:10 10° NNE
Cosmos 2333 Rocket 2.3 06:08:44 10° SW 06:14:25 67° WNW 06:20:10 10° NNE
Cosmos 1809 Rocket 4.5 06:09:27 10° NNW 06:15:39 73° W 06:21:47 10° S
Cosmos 371 Rocket 3.7 06:11:10 10° S 06:15:58 67° ESE 06:20:50 10° NNE
Cosmos 1763 Rocket 3.5 06:13:08 10° SSW 06:18:13 89° ESE 06:23:25 10° NNE
Cosmos 1937 Rocket 4.2 06:15:34 10° NW 06:20:18 33° WSW 06:24:59 10° SSW
Cosmos 332 Rocket 3.9 06:15:40 10° SSW 06:20:34 88° WNW 06:25:30 10° NNE
Cosmos 405 Rocket 3.0 06:17:33 10° SSW 06:21:28 49° WNW 06:25:22 10° N
Cosmos 1346 3.4 06:19:31 10° S 06:22:20 64° E 06:25:10 10° NNE
Cosmos 2228 3.0 06:18:26 10° NNW 06:22:46 74° W 06:27:06 10° S
NOSS 0 Rocket 4.0 06:17:16 10° SW 06:23:25 69° WNW 06:29:35 10° NNE
Cosmos 2218 Rocket 4.2 06:17:24 10° NNW 06:23:33 51° W 06:29:37 10° SSW
